Weather Roundup
Issued by NWS

Home | Current Version | Previous Version | Graphics & Text | Print | Product List | Glossary Off
Versions: 1 2 3 4 5 6 7 8 9 10 11 12 13 14 15 16 17 18 19 20 21 22 23 24 25 26 27 28 29 30 31 32 33 34 35 36 37 38 39 40 41 42 43 44 45 46 47 48 49 50

000
NZUS93 KARX 300810
HRRWXR

CURRENT HOURLY OBSERVATIONS ACROSS
MUCH OF THE UPPER MISSISSIPPI VALLEY
NATIONAL WEATHER SERVICE LA CROSSE WI
300 AM CDT TUE SEP 30 2014


...SOUTHEAST MINNESOTA...


CITY           SKY/WX    TMP DP  RH WIND       PRES   REMARKS
ROCHESTER      MOCLDY    43  41  93 E10       30.09R
ROCHESTER/MAYO CLOUDY    44  40  85 E6        30.09S
WINONA         CLOUDY    43  39  87 E6        30.12S
AUSTIN         CLEAR     45  43  93 E6        30.07S
ALBERT LEA     CLEAR     46  45  93 E7        30.07R
DODGE CENTER   PTCLDY    43  41  93 E9        30.07F
PRESTON        CLOUDY    44  42  92 E8        30.09R
OWATONNA       CLEAR     43  39  87 E7        30.08S
FARIBAULT      CLEAR     45  37  76 NE3       30.09S
$$

...ELSEWHERE IN MINNESOTA...


CITY           SKY/WX    TMP DP  RH WIND       PRES   REMARKS
MINNEAPOLIS    MOCLDY    43  38  82 E10       30.11S
INTNL FALLS    CLOUDY    42  39  89 SE3       30.14F
DULUTH         CLOUDY    43  38  82 SE8       30.15S
RED WING       CLOUDY    45  39  81 E9        30.11S
REDWOOD FALLS  CLEAR     46  43  89 E10       30.05F
MANKATO        CLEAR     45  37  76 E8        30.07S
WORTHINGTON    MOCLDY    50  46  87 E12       30.02F
FAIRMONT       CLEAR     46  43  87 E6        30.04F
$$

...SOUTHWEST WISCONSIN...


CITY           SKY/WX    TMP DP  RH WIND       PRES   REMARKS
LA CROSSE      CLOUDY    48  42  80 NE6       30.10F
PRAIRIE DU CHI CLOUDY    53  46  77 NE7       30.07R
BOSCOBEL       NOT AVBL
LONE ROCK      CLOUDY    53  45  74 E13       30.08S
PLATTEVILLE    CLOUDY    50  48  90 NE8       30.07S
FORT MC COY    CLOUDY    46  42  88 E7        30.11S
CAMP DOUGLAS   CLOUDY    44  44 100 E9        30.11S
VIROQUA        CLOUDY    46  46 100 NE7       30.08S
WIS DELLS      CLOUDY    45  40  85 NE5       30.10R
$$

...ELSEWHERE IN WISCONSIN...


CITY           SKY/WX    TMP DP  RH WIND       PRES   REMARKS
MILWAUKEE      CLOUDY    46  40  79 N9        30.08R
MADISON        CLOUDY    47  42  83 NE9       30.09S
GREEN BAY      CLOUDY    43  39  86 N14       30.11S
EAU CLAIRE     CLOUDY    43  37  79 E8        30.13S
BLACK RVR FLS  CLOUDY    44  38  82 E9        30.12S
MEDFORD        CLOUDY    38  36  91 NE5       30.13S WCI  35
WAUSAU         CLOUDY    40  35  83 E8        30.11S WCI  34
WIS RAPIDS     CLOUDY    43  36  76 NE7       30.13S
MARSHFIELD     CLOUDY    42  37  82 NE7       30.12R
RICE LAKE      CLOUDY    41  37  86 NE7       30.16F
$$

...NORTHEAST IOWA...


CITY           SKY/WX    TMP DP  RH WIND       PRES   REMARKS
DECORAH        CLOUDY    48  46  93 E7        30.07R
MASON CITY     CLEAR     47  46  97 NE6       30.06F
CHARLES CITY   PTCLDY    50  48  93 E7        30.06S
OELWEIN        MOCLDY    52  48  87 E7        30.05F
$$

...ELSEWHERE IN IOWA...


CITY           SKY/WX    TMP DP  RH WIND       PRES   REMARKS
DES MOINES     PTCLDY    60  56  86 E7        30.00S
IOWA CITY      CLOUDY    57  54  89 NE12      30.03R
FORT DODGE     CLEAR     52  48  87 E7        30.02F
$$

...NORTHERN ILLINOIS...


CITY           SKY/WX    TMP DP  RH WIND       PRES   REMARKS
CHICAGO-OHARE  CLOUDY    52  46  80 N15       30.04R
CHICAGO-MIDWAY MOCLDY    56  49  77 NE15      30.02S
MOLINE         NOT AVBL
ROCKFORD       CLOUDY    52  46  80 NE14      30.08R
PEORIA         CLOUDY    61  56  83 NE15      29.99R HAZE
$$

NOTE: "FAIR" INDICATES FEW OR NO CLOUDS BELOW 12,000 FEET WITH NO
SIGNIFICANT WEATHER AND/OR OBSTRUCTIONS TO VISIBILITY. WIND
SPEEDS ARE IN MILES-PER-HOUR.



USA.gov is the U.S. government's official web portal to all federal, state and local government web resources and services.